Location: Unspecified
(52.1971°N, 0.0000°E)
Time: 02:48:13
(UTC+00:00)

ISS - Pass Details

Date: 22 May 2019
Orbit: 407 x 419 km, 51.6° (Epoch: 26 June)

Event Time Altitude Azimuth Distance (km) Brightness Sun altitude
Rises 23:44:42 0° 280° (W) 2,366 0.2 -17.3°
Reaches altitude 10° 23:46:49 10° 276° (W) 1,503 -0.9 -17.3°
Maximum altitude 23:50:08 57° 197° (SSW) 502 -3.8 -17.3°
Enters shadow 23:50:28 53° 169° (S) 522 -3.7 -17.3°
